VANGUARD DEB, 61446

Orbit data source: Space-Track

VANGUARD DEB, 61446 is space debris in LEO originally from a launch on Tue, 17 Feb 1959 UTC launched from the Air Force Eastern Test Range (AFETR). Debris objects in space refer to the collection of defunct objects orbiting the Earth. Examples of debris include non-operational satellites, rocket bodies, and fragments generated from explosions, collisions, or faulty payload assembly.

Loading next visibility...
Identifier
61446, 1959-001E
Orbit
LEO
Country
Flag of USUS
Related business
Manufacturer
Unknown
Mission
Spacecraft
Bus & Motor
Unknown
Mass
Unknown
Launch date (UTC)
1959-02-17 (67 years ago)
Launch vehicle
Unknown
Launch site
Air Force Eastern Test Range (AFETR)
Object type
Payload
Rocket body
Debris
Shape & HBR
Unknown
Radar Cross Section
Small (<0.1 m²)

Expand to show TLE details & history
Last TLE update: 1 week ago

TLE from 1 week ago
0 VANGUARD DEB
1 61446U 59001E   25236.68004973  .00000905  00000-0  36026-3 0  9995
2 61446  32.8552 230.2265 1223834  66.4905  96.9186 12.42858719947962
Epoch: 2025-08-24T16:19Z
TLE epoch observation values (Epoch: 2025-08-24T16:19:16.296Z)
Latitude
1.62852°
Longitude
-170.29958°
Altitude
1,721.801 km
Speed
6.916 km/s
True Right ascension
03h 10m 51s
True Declination
1° 37' 12"
Sunlit
Object was in daylight at epoch
Visualization orbit readout
Latitude
Unknown
Longitude
Unknown
Altitude
Unknown
Speed
Unknown
Apparent Right ascension
Unknown
Apparent Declination
Unknown
Sunlit
N/A
Visualization observer readout
Local Sidereal Time
13:00:05
Azimuth
Unknown
Elevation
Unknown
Doppler factor
Unknown
Orbital elements
Apogee altitude
2,461.583 km
Perigee altitude
533.837 km
Semi-major axis
7,875.847 km
Eccentricity
0.12238
Inclination
32.8552°
RAAN
230.2265°
Arg. of periapsis
66.4905°
True anomaly
110.46165°
Mean anomaly
96.9186°
Eccentric anomaly
103.73027°
Mean motion
3.10526 °/min
Orbital period
115.93 mins
BSTAR
0.00036026
Loading maneuver chart data...
Computing Atmospheric mass density...
Loading historical data...
Loading historical data...
Loading historical data...
Loading historical data...
Loading historical data...
Loading historical data...
Loading historical data...
Other satellites on launch #1 in the year 1959 (1959-02-17 UTC)

Documentation

Showing up to 5 results
|